Other Surface Observations
Issued by NWS Tucson, AZ

Home | Current Version | Previous Version | Text Only | Print | Product List | Glossary On
Versions: 1 2 3 4 5 6 7 8 9 10 11 12 13 14 15 16 17 18 19 20 21 22 23 24 25 26 27 28 29 30 31 32 33 34 35 36 37 38 39 40 41 42 43 44 45 46 47 48 49 50
000
SXUS55 KTWC 261915
OSOTWC

WEATHER ROUNDUP FOR SOUTHEAST ARIZONA
NATIONAL WEATHER SERVICE TUCSON AZ
1215 PM MST FRI DEC 26 2014

AZZ504>506-514-262015-
LOCATION       SKY/WX    TMP DP  RH WIND       PRES   REMARKS
TUCSON         FAIR      49  16  26 VRB5      30.02F
DAVIS-MONTHAN  NOT AVBL
CHILDRENS PARK N/A       48  14  25 N0                PIMA CO DEQ
ALVERNON/22ND  N/A      N/A N/A N/A N/A               PIMA CO DEQ
CHERRY/GLENN   N/A      N/A N/A N/A N/A               PIMA CO DEQ
TANGERINE      N/A       48 N/A N/A W3                PIMA CO DEQ
CONTL RANCH    N/A       49  17  28 NW3               PIMA CO DEQ
GRANT/1ST      N/A       48  15  26 S1                PIMA CO DEQ
CRAYCROFT/22ND N/A      N/A N/A N/A N/A               PIMA CO DEQ
GOLFLINKS/KOLB N/A       47  15  27 SW2               PIMA CO DEQ
AJO/12TH       N/A       49  17  28 S6                PIMA CO DEQ
SAGUARO EAST   N/A      N/A N/A N/A N/A               PIMA CO DEQ
FAIRGROUNDS    N/A       47 N/A N/A SW2               PIMA CO DEQ
SAGUARO        N/A       51  14  22 S4                *SABINO CYN
SAN CARLOS     N/A       47  15  27 S4                *SAN CARLOS
GREEN VALLEY   N/A       49  16  26 E1                PIMA CO DEQ
HORSE CAMP CYN N/A       40  11  30 W11G16            *ARAVAIPA CYN
RINCON MTNS    N/A       28  10  47 SW3G11            *NR MANNING CAMP
$$

AZZ509>511-262015-
LOCATION       SKY/WX    TMP DP  RH WIND       PRES   REMARKS
SAFFORD        FAIR      47  14  26 NW13G21   29.96F
STRAY HORSE    N/A       25   6  43 W14G22            *
TRAIL CABIN    N/A       33  12  41 W7G12             *N OF GRANVILLE
BLACK HILLS    N/A       46  11  24 NW7G14            *N OF FT THOMAS
DRY LAKE       N/A       30   9  40 SW6G12            *NATANES MTNS
NOON CREEK     N/A       42  15  33 NE5G10            *PINALENO MTNS
COLUMBINE      N/A       22 -14  19 S7G12             *PINALENO MTNS
GUTHRIE        N/A       32  12  43 W6G14             *SW OF GUTHRIE
$$

AZZ502-503-513-262015-
LOCATION       SKY/WX    TMP DP  RH WIND       PRES   REMARKS
NOGALES        FAIR      49  21  33 MISG      29.97F
SELLS          N/A       51  16  25 W6G11             *
SASABE         N/A       49  18  29 S4                *ALTAR VLY
HOPKINS        N/A       37  20  50 W9G19             *SANTA RITA MTNS
CARR CYN       N/A       44  25  46 W4G10             *W OF HEREFORD
$$

AZZ507-508-512-262015-
LOCATION       SKY/WX    TMP DP  RH WIND       PRES   REMARKS
SIERRA VISTA   FAIR      46  20  35 W17G28    29.95F
DOUGLAS        PTSUNNY   47  23  38 NW12      29.96F
EMPIRE MTNS    N/A       45  11  25 W12G20            *LAS CIENEGAS NCA
MULESHOE RANCH N/A       41  12  30 W8G12             *PRESERVE
HEADQUARTERS   N/A       36  23  58 W3                *CHIRICAHUA MTNS
$$

.............................NOTES.............................
THIS IS AN AUTOMATED COLLECTIVE WITH MINIMAL QUALITY CONTROL.
PIMA CO DEQ SITES HAVE NONSTANDARD WIND SENSOR HEIGHTS.
PIMA CO DEQ SITES DO NOT REPORT WIND GUSTS.
* INDICATES WIND SENSORS LOCATED AT 20 FEET INSTEAD OF 33 FEET.
..............................KEY..............................
SKY/WX - SKY CONDITION/WEATHER
TMP    - TEMPERATURE IN FAHRENHEIT
DP     - DEWPOINT IN FAHRENHEIT
RH     - RELATIVE HUMIDITY IN PERCENT
WIND   - DIRECTION AND SPEED IN MILES PER HOUR (MPH)
VRB    - VARIABLE WIND DIRECTION
PRES   - MEAN SEA LEVEL PRESSURE IN INCHES OF MERCURY
         F - FALLING PRESSURE   R - RISING PRESSURE
         S - STEADY PRESSURE
VSB    - VISIBILITY IN MILES
HX     - HEAT INDEX IN FAHRENHEIT
WCI    - WIND CHILL INDEX IN FAHRENHEIT
N/A    - NOT AVAILABLE
AFB    - AIR FORCE BASE
         DAVIS-MONTHAN IS DAVIS-MONTHAN AIR FORCE BASE
CYN    - CANYON
MTNS   - MOUNTAINS
NCA    - NATIONAL CONSERVATION AREA
NR     - NEAR
VLY    - VALLEY
CONTL  - CONTINENTAL
PIMA CO DEQ - PIMA COUNTY DEPT OF ENVIRONMENTAL QUALITY



USA.gov is the U.S. government's official web portal to all federal, state and local government web resources and services.